User: anonymous   Login
Location: Passau
(48.5830°N, 13.4830°E)
Time: 17:31:53
(UTC+02:00)
Language:

S-56A Canister/Altair - Orbit

View from above orbital plane
View from above orbital plane
View from above satellite
View from above satellite

Ground track
Ground track

The orbit data is extracted from the following two-line orbital elements,

1 00082U 61004B   24139.70778892  .00001504  00000-0  12976-2 0  9995
2 00082  38.8542 298.7170 1164373 151.8882 214.9969 12.26741226983490
Epoch (UTC): 18 May 2024 16:59:12
Eccentricity: 0.1164373
inclination: 38.8542°
perigee height: 638 km
apogee height: 2488 km
right ascension of ascending node: 298.7170°
argument of perigee: 151.8882°
revolutions per day: 12.26741226
mean anomaly at epoch: 214.9969°
orbit number at epoch: 98349

The dashed part of the orbit path shows where the satellite is in the earth's shadow,  

DLR